User: anonymous   Login
Location: Melbourne
(37.8170°S, 144.9670°E)
Time: 11:13:08
(UTC+11:00)
Language:

Cosmos 962 Rocket - Orbit

View from above orbital plane
View from above orbital plane
View from above satellite
View from above satellite

Ground track
Ground track

The orbit data is extracted from the following two-line orbital elements,

1 10461U 77107B   17017.92142082 +.00000048 +00000-0 +33735-4 0  9995
2 10461 082.9504 124.9699 0032948 206.6067 291.5640 13.76774339969815
Epoch (UTC): 17 January 2017 22:06:50
Eccentricity: 0.0032948
inclination: 82.9504°
perigee height: 951 km
apogee height: 999 km
right ascension of ascending node: 124.9699°
argument of perigee: 206.6067°
revolutions per day: 13.76774339
mean anomaly at epoch: 291.5640°
orbit number at epoch: 96981

The dashed part of the orbit path shows where the satellite is in the earth's shadow,  

DLR